Weather History for Casper, WY

Change the Weather History Date:

Tuesday, November 26, 2013

  Actual Average Record
Temperature  
Mean Temperature 30 °F 28 °F  
Max Temperature 44 °F 39 °F 63 °F (1998)
Min Temperature 16 °F 17 °F -11 °F (1952)
Degree Days  
Heating Degree Days 35 37  
Month to date heating degree days 843 806  
Since 1 July heating degree days 1732 1705  
Cooling Degree Days 0 0  
Month to date cooling degree days 0 0  
Year to date cooling degree days 618 422  
Moisture  
Dew Point 21 °F    
Average Humidity 62    
Maximum Humidity 84    
Minimum Humidity 40    
Precipitation  
Precipitation 0.00 in 0.02 in 0.49 in (2004)
Month to date precipitation 0.24 0.68  
Year to date precipitation 13.94 11.95  
Sea Level Pressure  
Sea Level Pressure 30.37 in    
Wind  
Wind Speed 13 mph (SW)    
Max Wind Speed 22 mph    
Max Gust Speed 29 mph    
Visibility 10 miles    
Events      
T = Trace of Precipitation, MM = Missing Value Source: NWS Daily Summary

Daily Weather History Graph

Daily Weather History Graph

Search for Another Location

Airport:

Trip Planner

Search our weather history database for the weather conditions in past years. The results will help you decide how hot, cold, wet, or windy it might be!

Date:

Astronomy

Nov. 26, 2013 Rise Set
Actual Time 7:11 AM MST 4:34 PM MST
Civil Twilight 6:40 AM MST 5:05 PM MST
Nautical Twilight 6:05 AM MST 5:40 PM MST
Astronomical Twilight 5:31 AM MST 6:14 PM MST
Moon 12:08 AM MST (11/26) 12:51 PM MST (11/26)
Length of Visible Light 10h 25m
Length of Day
9h 22m
Last Quarter, 40% of the Moon is Illuminated
Nov 26
Last Quarter
Dec 2
New
Dec 9
First Quarter
Dec 17
Full
Dec 25
Last Quarter

Hourly Weather History & Observations

Time (MST) Temp. Windchill Dew Point Humidity Pressure Visibility Wind Dir Wind Speed Gust Speed Precip Events Conditions
12:53 AM 21.0 °F 9.9 °F 17.1 °F 85% 30.43 in 10.0 mi West 10.4 mph - N/A   Clear
1:53 AM 21.0 °F 10.6 °F 16.0 °F 81% 30.43 in 10.0 mi West 9.2 mph - N/A   Clear
2:53 AM 21.0 °F 10.6 °F 16.0 °F 81% 30.43 in 10.0 mi WSW 9.2 mph - N/A   Clear
3:53 AM 21.0 °F 11.4 °F 17.1 °F 85% 30.43 in 10.0 mi WSW 8.1 mph - N/A   Clear
4:53 AM 24.1 °F 13.7 °F 18.0 °F 77% 30.47 in 10.0 mi WSW 10.4 mph - N/A   Overcast
5:53 AM 25.0 °F 15.5 °F 19.0 °F 78% 30.47 in 10.0 mi WSW 9.2 mph - N/A   Overcast
6:53 AM 27.0 °F 16.1 °F 19.9 °F 75% 30.48 in 10.0 mi WSW 12.7 mph - N/A   Overcast
7:53 AM 28.0 °F 17.5 °F 19.9 °F 72% 30.49 in 10.0 mi WSW 12.7 mph - N/A   Mostly Cloudy
8:53 AM 32.0 °F 22.5 °F 21.0 °F 64% 30.50 in 10.0 mi SW 12.7 mph - N/A   Overcast
9:53 AM 34.0 °F 24.2 °F 21.0 °F 59% 30.48 in 10.0 mi SSW 15.0 mph - N/A   Scattered Clouds
10:53 AM 37.9 °F 29.6 °F 21.9 °F 53% 30.45 in 10.0 mi SSW 13.8 mph 21.9 mph N/A   Scattered Clouds
11:53 AM 39.9 °F 31.4 °F 23.0 °F 51% 30.42 in 10.0 mi SW 16.1 mph - N/A   Scattered Clouds
12:53 PM 43.0 °F 35.7 °F 21.9 °F 43% 30.36 in 10.0 mi SW 15.0 mph - N/A   Clear
1:53 PM 44.1 °F 35.7 °F 23.0 °F 43% 30.33 in 10.0 mi SSW 20.7 mph - N/A   Clear
2:53 PM 44.1 °F 37.4 °F 21.9 °F 42% 30.32 in 10.0 mi SSW 13.8 mph - N/A   Clear
3:53 PM 41.0 °F 32.8 °F 23.0 °F 49% 30.32 in 10.0 mi SW 16.1 mph - N/A   Clear
4:53 PM 35.1 °F 26.9 °F 23.0 °F 61% 30.33 in 10.0 mi SSW 11.5 mph - N/A   Clear
5:53 PM 36.0 °F 28.0 °F 23.0 °F 59% 30.31 in 10.0 mi SSW 11.5 mph - N/A   Clear
6:53 PM 35.1 °F 26.4 °F 23.0 °F 61% 30.30 in 10.0 mi SW 12.7 mph - N/A   Clear
7:53 PM 35.1 °F 24.8 °F 23.0 °F 61% 30.29 in 10.0 mi SW 17.3 mph 23.0 mph N/A   Clear
8:53 PM 36.0 °F 29.0 °F 23.0 °F 59% 30.26 in 10.0 mi SW 9.2 mph 19.6 mph N/A   Clear
9:53 PM 35.1 °F 25.2 °F 21.9 °F 59% 30.25 in 10.0 mi SSW 16.1 mph - N/A   Clear
10:53 PM 35.1 °F 24.5 °F 21.9 °F 59% 30.22 in 10.0 mi SSW 18.4 mph - N/A   Clear
11:53 PM 35.1 °F 23.8 °F 21.9 °F 59% 30.20 in 10.0 mi SW 20.7 mph 27.6 mph N/A   Clear